Location: Alfortville
(48.8058°N, 2.4204°E)
Time: 03:38:08
(UTC+00:00)

Cosmos 1980 Rocket - Pass Details

Date: 26 May 2022
Orbit: 827 x 851 km, 71.0° (Epoch: 05 July)

Event Time Altitude Azimuth Distance (km) Brightness Sun altitude
Rises 20:22:03 0° 189° (S) 3,368 5.0 -6.4°
Reaches altitude 10° 20:24:32 10° 184° (S) 2,441 4.2 -6.7°
Maximum altitude 20:29:55 51° 110° (ESE) 1,055 2.4 -7.3°
Drops below altitude 10° 20:35:23 10° 37° (NE) 2,474 4.8 -7.9°
Sets 20:37:54 0° 32° (NNE) 3,417 5.6 -8.2°
